TimeCST,TemperatureF,Dew PointF,Humidity,Sea Level PressureIn,VisibilityMPH,Wind Direction,Wind SpeedMPH,Gust SpeedMPH,PrecipitationIn,Events,Conditions,WindDirDegrees,DateUTC
12:53 AM,36.0,28.0,73,30.23,10.0,NNW,10.4,-,N/A,,Clear,340,2013-01-17 06:53:00
1:53 AM,34.0,28.0,79,30.25,10.0,NNW,9.2,-,N/A,,Clear,340,2013-01-17 07:53:00
2:53 AM,33.8,26.6,75,30.27,10.0,NNW,8.1,-,N/A,,Clear,330,2013-01-17 08:53:00
3:53 AM,30.9,27.0,85,30.31,10.0,NNW,9.2,-,N/A,,Clear,330,2013-01-17 09:53:00
4:53 AM,30.0,26.1,85,30.35,10.0,NNW,10.4,-,N/A,,Clear,330,2013-01-17 10:53:00
6:53 AM,27.0,24.1,89,30.40,10.0,NNW,6.9,-,N/A,,Clear,340,2013-01-17 12:53:00
7:53 AM,28.0,24.1,85,30.42,9.0,North,8.1,-,N/A,,Clear,350,2013-01-17 13:53:00
8:53 AM,30.0,25.0,82,30.45,10.0,North,8.1,-,N/A,,Clear,360,2013-01-17 14:53:00
9:53 AM,32.0,21.9,66,30.49,10.0,North,11.5,-,N/A,,Clear,360,2013-01-17 15:53:00
10:53 AM,35.1,21.9,59,30.50,10.0,North,9.2,-,N/A,,Clear,350,2013-01-17 16:53:00
11:53 AM,39.0,21.0,49,30.48,10.0,NNW,4.6,-,N/A,,Clear,340,2013-01-17 17:53:00
12:53 PM,41.0,21.9,47,30.45,10.0,West,4.6,-,N/A,,Clear,260,2013-01-17 18:53:00
1:53 PM,44.1,24.1,45,30.43,10.0,Calm,Calm,-,N/A,,Clear,0,2013-01-17 19:53:00
2:53 PM,45.0,25.0,46,30.43,10.0,NNW,3.5,-,N/A,,Partly Cloudy,340,2013-01-17 20:53:00
3:53 PM,46.0,27.0,47,30.43,10.0,NNW,3.5,-,N/A,,Scattered Clouds,340,2013-01-17 21:53:00
4:53 PM,43.0,27.0,53,30.43,10.0,Calm,Calm,-,N/A,,Partly Cloudy,0,2013-01-17 22:53:00
5:53 PM,39.9,26.1,58,30.44,10.0,SSE,3.5,-,N/A,,Partly Cloudy,150,2013-01-17 23:53:00
6:53 PM,35.1,25.0,67,30.45,10.0,SE,5.8,-,N/A,,Clear,130,2013-01-18 00:53:00
7:53 PM,36.0,26.1,67,30.45,10.0,SSE,6.9,-,N/A,,Clear,160,2013-01-18 01:53:00
8:53 PM,30.9,24.1,76,30.44,10.0,SSE,8.1,-,N/A,,Clear,160,2013-01-18 02:53:00
9:53 PM,30.9,24.1,76,30.43,10.0,SSE,9.2,-,N/A,,Clear,160,2013-01-18 03:53:00
10:53 PM,30.9,24.1,76,30.41,10.0,South,11.5,-,N/A,,Partly Cloudy,170,2013-01-18 04:53:00
11:53 PM,32.0,25.0,75,30.40,10.0,South,11.5,-,N/A,,Clear,170,2013-01-18 05:53:00